RH
50 57 54 48 44 41 36 33 30 31 35 35 36 44 50 54 50 40 42 34 31 35 36 37 39 40 41 40 39 39 40 40 40 41 41 41 39 38 39 46 48 51 53 52 49 36 30 28 31
42 55 56 53 49 46 40 33 30 31 42 43 44 47 54 57 52 47 39 29 29 32 34 37 40 40 39 39 38 37 36 36 38 39 40 41 41 40 40 43 48 48 50 54 55 52 43 37 33
36 50 54 54 51 46 39 34 35 40 46 45 48 51 55 57 54 50 40 30 29 30 32 34 39 41 38 37 36 34 33 34 35 35 35 38 39 39 41 41 39 39 40 47 51 54 52 47 44
30 43 49 49 47 43 35 35 38 46 46 45 50 54 54 56 53 46 41 34 30 31 30 32 35 37 38 39 36 34 32 31 32 31 31 32 34 37 41 45 44 44 41 42 44 46 47 47 45
30 36 42 41 38 37 36 34 38 39 42 44 47 52 55 55 50 47 40 35 31 31 30 32 33 34 34 35 35 32 31 30 29 28 28 29 32 33 36 41 42 43 46 46 45 44 44 53 48
31 31 36 35 29 30 31 30 33 37 41 41 44 51 56 53 50 46 41 33 31 29 28 29 31 33 32 31 30 28 24 23 22 21 21 21 23 26 30 34 36 39 42 43 48 51 50 51 51
29 31 31 28 27 29 28 27 30 35 39 40 41 50 53 51 47 43 39 33 30 28 28 29 29 30 28 26 22 19 18 17 16 17 18 18 18 21 22 25 31 34 37 39 42 46 46 50 54
28 26 26 25 28 29 26 23 27 30 35 39 40 44 49 50 44 39 36 32 29 28 28 29 29 27 23 20 18 16 16 14 14 14 13 13 14 14 14 16 17 18 22 26 30 32 37 39 43
28 27 27 24 29 27 24 25 26 27 29 31 35 38 35 42 41 36 33 28 27 27 27 27 25 22 18 16 15 14 13 13 12 10 9 9 9 9 9 10 12 13 14 15 19 21 25 29 34
29 28 26 25 26 26 26 25 25 25 28 32 32 32 32 38 37 33 29 25 24 25 25 23 20 17 14 13 12 12 11 10 9 9 9 10 11 11 11 12 12 12 13 13 13 14 16 18 19
28 27 26 24 27 29 26 24 24 26 28 31 29 31 35 35 34 31 27 24 24 23 21 18 15 14 13 12 11 10 9 9 10 10 11 11 12 12 12 13 13 13 13 13 12 12 12 13 14
26 27 26 24 27 30 25 22 24 25 25 27 29 31 32 32 29 26 23 22 22 21 17 15 15 14 12 11 10 9 9 10 11 11 12 12 12 13 14 14 14 13 13 14 14 15 15 16 16
26 27 26 23 26 28 24 22 23 25 23 26 31 33 31 27 25 23 23 22 21 18 16 15 14 13 12 11 11 11 12 12 13 13 13 13 13 13 13 13 13 15 16 17 17 17 17 16 15
27 26 25 22 22 23 22 22 25 24 23 26 29 30 29 25 22 22 24 22 18 16 16 15 14 13 13 12 12 12 13 13 13 12 11 10 10 10 9 10 11 12 13 14 15 16 16 17 18
26 25 26 22 22 22 23 24 24 23 24 25 24 23 22 20 20 19 20 17 16 16 15 14 14 13 13 12 12 13 13 12 11 10 10 10 10 9 10 10 12 13 15 15 15 15 16 16 17
27 27 29 27 24 21 22 23 22 21 22 23 22 20 19 18 17 17 17 16 15 15 14 14 14 13 13 13 14 14 13 12 12 12 11 10 10 9 9 9 11 14 16 18 17 17 16 18 19
30 32 30 28 26 24 21 18 19 19 19 20 20 19 18 17 17 16 16 15 15 15 15 14 14 15 15 16 16 15 13 13 13 12 11 10 9 10 12 13 15 16 17 19 20 21 22 23 23
28 32 30 27 26 23 20 18 18 18 18 17 17 17 16 15 15 15 14 14 15 15 14 14 15 16 16 16 16 14 14 14 13 13 12 10 10 10 11 13 16 18 20 23 23 24 25 27 27
27 28 28 27 24 20 19 18 16 16 17 17 16 16 16 15 15 14 14 14 14 13 13 15 16 16 17 17 15 14 14 15 14 14 13 11 8 8 10 14 18 22 24 24 26 27 27 27 27
26 26 26 25 23 19 22 20 17 16 16 15 15 15 14 14 13 13 13 13 13 13 14 16 16 17 18 17 14 14 15 15 14 14 13 11 8 6 9 13 19 22 25 27 30 30 30 28 32
30 25 24 22 23 24 22 18 15 16 18 16 16 16 15 14 12 11 12 12 13 14 15 16 18 19 19 18 15 15 16 17 15 14 14 13 11 8 8 13 21 24 26 29 30 33 36 37 39
27 28 25 24 22 24 24 27 14 16 19 17 17 16 16 16 15 15 15 15 15 15 17 19 20 20 18 14 15 16 17 18 18 14 13 14 14 12 7 9 16 20 27 30 33 36 38 40 40
29 27 27 27 27 25 24 28 16 19 18 17 17 17 17 17 16 15 14 14 15 16 18 18 18 18 17 16 17 18 18 20 18 15 13 14 17 14 10 8 13 16 21 30 35 38 39 37 34
28 27 28 30 27 30 29 30 25 23 18 18 19 20 19 18 18 17 17 17 17 18 19 20 21 18 19 20 20 20 21 18 17 15 14 15 16 16 13 10 11 16 17 26 30 32 32 32 31
27 25 35 30 37 32 35 38 26 20 22 21 23 22 21 20 20 20 20 22 23 23 22 22 23 25 26 24 24 23 21 20 17 14 15 15 16 16 15 13 13 12 15 21 26 28 27 28 29
30 26 36 23 35 40 36 38 26 22 21 24 22 21 22 23 24 25 25 23 23 24 25 26 27 28 29 28 26 23 18 17 16 14 15 14 17 16 16 15 15 13 12 17 21 23 24 27 27
33 36 34 45 47 43 36 26 20 21 22 23 24 24 25 24 24 25 23 22 23 24 25 26 26 26 24 20 18 17 16 17 15 14 14 15 18 17 16 16 15 16 15 14 18 19 22 24 24
33 33 34 38 28 34 33 28 32 28 24 26 27 26 24 23 22 22 23 24 23 22 22 22 22 22 22 21 21 22 21 19 17 16 16 16 18 20 19 18 17 16 16 15 16 18 20 21 22
35 34 36 33 36 39 34 33 25 26 26 26 25 23 21 21 21 22 23 24 26 28 28 27 28 30 30 29 28 29 26 22 19 18 19 19 21 22 22 22 20 19 17 16 16 13 15 17 20
31 34 36 41 36 48 41 38 22 27 27 26 23 21 21 24 25 27 28 21 21 25 31 33 34 34 33 30 31 28 25 24 23 22 21 20 20 21 21 22 23 23 22 20 18 16 13 12 14